Flag for India Weather past 2 weeks in Jalpaiguri, West Bengal, India

Now
81 °F

Light rain. Broken clouds.


Feels Like: 88 °F
Forecast: 77 / 89 °F
Wind: 6 mph from Northwest

Location: Varanasi / Babatpur

Current Time: Jul 31, 2015 at 1:00:11 PM

Latest Report: Jul 31, 2015 at 12:00 PM


Visibility: 2 mi

Pressure: 29.62 "Hg

Humidity: 94%

Dew point: 79 °F

Location of JalpaiguriLocation

Historic Weather in Jalpaiguri — Graph

°F

Jalpaiguri temperature yesterday

Maximum temperature yesterday: 95 °F (at 3:00 PM)
Minimum temperature yesterday: 82 °F (at 5:00 AM)
Average temperature yesterday: 88 °F

Past Weeks' High & Low Weather Summary

 TemperatureHumidityPressure
High99 °F (Jul 27, 4:00 PM)100% (Jul 16, 9:00 PM)29.65 "Hg (Jul 16, 9:00 PM)
Low77 °F (Jul 26, 6:00 AM)45% (Jul 23, 4:00 AM)29.39 "Hg (Jul 19, 4:00 PM)
Average86 °F77%29.54 "Hg
* Reported Jul 16 11:00 AM — Jul 31 11:00 AM, Jalpaiguri, Weather by CustomWeather, © 2015

Note: Actual official high and low records may vary slightly from our data, if they occured in-between our weather recording intervals... More about our weather records

Advertising

Jalpaiguri weather history for previous 24 hours

 ConditionsComfort  
Time TempWeatherWind HumidityBarometerVisibility
11:00 AM
Fri, Jul 31
81 °FLight rain. Broken clouds.3 mph94%29.62 "Hg2 mi
10:00 AM81 °FLight rain. Broken clouds.6 mph94%29.62 "Hg2 mi
7:00 AM82 °FBroken clouds.9 mph84%29.53 "Hg2 mi
6:00 AM82 °FBroken clouds.6 mph84%29.53 "Hg2 mi
5:00 AM84 °FPartly cloudy.7 mph84%29.53 "Hg2 mi
4:00 AM84 °FLight rain. Partly cloudy.5 mph84%29.53 "Hg2 mi
12:00 AM86 °FPartly cloudy.No wind79%29.56 "Hg2 mi
11:00 PM
Thu, Jul 30
86 °FPartly cloudy.No wind79%29.56 "Hg2 mi
10:00 PM86 °FPartly cloudy.1 mph66%29.56 "Hg3 mi
9:00 PM86 °FPartly cloudy.2 mph66%29.56 "Hg3 mi
7:00 PM86 °FScattered clouds.7 mph66%29.50 "Hg4 mi
6:00 PM86 °FScattered clouds.12 mph75%29.53 "Hg4 mi
5:00 PM93 °FScattered clouds.6 mph56%29.50 "Hg4 mi
4:00 PM95 °FScattered clouds.6 mph56%29.50 "Hg4 mi
3:00 PM95 °FScattered clouds.8 mph56%29.53 "Hg4 mi
2:00 PM93 °FScattered clouds.9 mph59%29.56 "Hg4 mi
1:00 PM93 °FScattered clouds.9 mph59%29.56 "Hg4 mi
Weather by CustomWeather, © 2015

See weather overviewHow to use our weather pages